Regional Weather Roundup
Issued by NWS

Home | Current Version | Previous Version | Graphics & Text | Print | Product List | Glossary Off
Versions: 1 2 3 4 5 6 7 8 9 10 11 12 13 14 15 16 17 18 19 20 21 22 23 24 25 26 27 28 29 30 31 32 33 34 35 36 37 38 39 40 41 42 43 44 45 46 47 48 49 50

623
ASUS43 KTOP 230559
RWRKS

WEATHER ROUNDUP FOR KANSAS
NATIONAL WEATHER SERVICE GOODLAND KS
100 AM CDT SUN APR 23 2017

NOTE:  "FAIR" INDICATES FEW OR NO CLOUDS BELOW 12,000 FEET WITH NO
SIGNIFICANT WEATHER AND/OR OBSTRUCTIONS TO VISIBILITY.

KSZ001>006-013>018-027>032-041>047-230700-
NORTHWEST KANSAS

CITY           SKY/WX    TMP DP  RH WIND       PRES   REMARKS
GOODLAND       CLEAR     44  31  60 S10       30.23F
6HR MIN TEMP:  41; 6HR MAX TEMP:  57;

HAYS           CLEAR     37  34  89 W5        30.24F
HILL CITY      CLEAR     38  33  82 W5        30.25S
6HR MIN TEMP:  37; 6HR MAX TEMP:  62;

RUSSELL        CLEAR     41  32  70 SE5       30.22S
6HR MIN TEMP:  39; 6HR MAX TEMP:  62;

$$

KSZ061>065-074>080-084>089-230700-
SOUTHWEST KANSAS

CITY           SKY/WX    TMP DP  RH WIND       PRES   REMARKS
DODGE CITY     CLEAR     40  32  73 NW6       30.26S
6HR MIN TEMP:  39; 6HR MAX TEMP:  58;

ELKHART          N/A     42  30  62 S6          N/A
GARDEN CITY    CLEAR     39  32  76 W6        30.26S
6HR MIN TEMP:  39; 6HR MAX TEMP:  56;

GREAT BEND     CLEAR     41  36  82 CALM      30.24S
LIBERAL        CLEAR     37  27  65 NW5       30.28S
$$

KSZ066>073-081>083-090>101-230700-
SOUTHEAST KANSAS

CITY           SKY/WX    TMP DP  RH WIND       PRES   REMARKS
CHANUTE        CLEAR     46  37  71 N7        30.16S
6HR MIN TEMP:  46; 6HR MAX TEMP:  59;

COFFEYVILLE    CLEAR     45  42  89 NW8       30.16R
6HR MIN TEMP:  45; 6HR MAX TEMP:  55;

HUTCHINSON     CLEAR     42  38  85 NW3       30.22S
6HR MIN TEMP:  39; 6HR MAX TEMP:  62;

MEDICINE LODGE   N/A     41  37  86 N3        30.23R
NEWTON         CLEAR     43  36  76 N7        30.22R
PARSONS        CLEAR     42  40  92 CALM      30.17R
6HR MIN TEMP:  42; 6HR MAX TEMP:  54;

WICHITA INTL   CLEAR     45  38  76 N6        30.21R
6HR MIN TEMP:  44; 6HR MAX TEMP:  61;

WICHITA JABRA  CLEAR     44  36  73 N8        30.20S
6HR MIN TEMP:  43; 6HR MAX TEMP:  59;

WICHITA MCCONL CLEAR     46  35  66 NE7       30.20S
WINFIELD       CLEAR     44  39  82 N6        30.20S
6HR MIN TEMP:  43; 6HR MAX TEMP:  59;

$$

KSZ007>012-019>026-033>040-048>060-102>105-230700-
NORTHEAST KANSAS

CITY           SKY/WX    TMP DP  RH WIND       PRES   REMARKS
CONCORDIA      CLEAR     45  34  65 W3        30.22S
6HR MIN TEMP:  45; 6HR MAX TEMP:  62;

EMPORIA        CLEAR     46  37  71 NW3       30.20R
6HR MIN TEMP:  46; 6HR MAX TEMP:  61;

LAWRENCE       CLEAR     40  34  79 N6        30.19S
6HR MIN TEMP:  40; 6HR MAX TEMP:  64;

MANHATTAN      CLEAR     39  35  86 CALM      30.22R
6HR MIN TEMP:  39; 6HR MAX TEMP:  64;

OLATHE IND     CLEAR     42  33  70 N8        30.19S
6HR MIN TEMP:  40; 6HR MAX TEMP:  61;

OLATHE EXE     CLEAR     50  32  50 N5        30.18S
6HR MIN TEMP:  49; 6HR MAX TEMP:  62;

SALINA         CLEAR     48  37  65 CALM      30.23R
6HR MIN TEMP:  46; 6HR MAX TEMP:  64;

TOPEKA BILLARD CLEAR     44  40  85 W3        30.20S
6HR MIN TEMP:  44; 6HR MAX TEMP:  63;

TOPEKA FORBES  CLEAR     43  36  76 NW6       30.19S
6HR MIN TEMP:  42; 6HR MAX TEMP:  64;

$$




USA.gov is the U.S. government's official web portal to all federal, state and local government web resources and services.